Regional Weather Roundup
Issued by NWS

Home | Current Version | Previous Version | Graphics & Text | Print | Product List | Glossary On
Versions: 1 2 3 4 5 6 7 8 9 10 11 12 13 14 15 16 17 18 19 20 21 22 23 24 25 26 27 28 29 30 31 32 33 34 35 36 37 38 39 40 41 42 43 44 45 46 47 48 49 50
000
ASUS43 KMKX 191621
RWRWI

WISCONSIN REGIONAL WEATHER ROUNDUP
NATIONAL WEATHER SERVICE MILWAUKEE/SULLIVAN WI
1100 AM CDT SUN APR 19 2015

NOTE: "FAIR" INDICATES FEW OR NO CLOUDS BELOW 12,000 FEET WITH NO
SIGNIFICANT WEATHER AND/OR OBSTRUCTIONS TO VISIBILITY.

WIZ001-002-006>008-014>016-023>028-191700-
NORTHWEST WISCONSIN

CITY           SKY/WX    TMP DP  RH WIND       PRES   REMARKS
SUPERIOR ARPT  DRIZZLE   38  38  99 E10       29.72F WCI  31
ASHLAND        CLOUDY    49  43  80 CALM      29.71F
HAYWARD        CLOUDY    50  35  56 S14G26    29.70F
SIREN          CLOUDY    47  43  83 S8        29.68F
CUMBERLAND     CLOUDY    46  37  71 SE10      29.70F
RICE LAKE      CLOUDY    51  38  61 SE14      29.72F
CHETEK         CLOUDY    50  37  61 SE14G20   29.72F
LADYSMITH      CLOUDY    50  35  55 SE10G18   29.75F
EAU CLAIRE     CLOUDY    52  37  56 SE13      29.71F
MENOMONIE      CLOUDY    53  39  60 E9        29.71F
NEW RICHMOND   CLOUDY    54  42  66 S14       29.68F
OSCEOLA        CLOUDY    52  43  71 SE10G16   29.70F
$$

WIZ003>005-009-010-017-018-191700-
NORTH CENTRAL WISCONSIN

CITY           SKY/WX    TMP DP  RH WIND       PRES   REMARKS
MANITOWISH WTR CLOUDY    49  32  52 S12       29.76S
ARBOR VITAE    CLOUDY    52  32  47 S12G18    29.76F
WOODRUFF       CLOUDY    52  32  47 S12G18    29.76F
RHINELANDER    PTSUNNY   52  31  44 SE13      29.79F
EAGLE RIVER    PTSUNNY   49  28  44 SE12G21   29.79F
LAND O LAKES   PTSUNNY   52  30  43 SE13G20   29.79F
PHILLIPS       DRIZZLE   49  35  57 S12       29.75F
TOMAHAWK       PTSUNNY   54  32  43 S8        29.79S
MEDFORD        CLOUDY    50  34  55 SE8       29.76F
MERRILL        CLOUDY    53  32  46 SE10G18   29.78F
$$

WIZ029-030-035-036-043>047-191700-
CENTRAL WISCONSIN

CITY           SKY/WX    TMP DP  RH WIND       PRES   REMARKS
WAUSAU         PTSUNNY   56  33  42 SE8G21    29.77F
MOSINEE        PTSUNNY   55  34  44 SE15      29.79F
MARSHFIELD     CLOUDY    56  33  42 SE14      29.76F
STEVENS POINT  PTSUNNY   57  33  39 SE10      29.79F
WAUPACA        MOSUNNY   60  31  34 E14       29.81F
WAUTOMA        PTSUNNY   64  32  30 SE13      29.79F
WISC RAPIDS    CLOUDY    59  32  36 SE13      29.77F
CAMP DOUGLAS   CLOUDY    57  34  41 SE6       29.75F
$$

WIZ011>013-019>022-031-037>040-048>050-191700-
NORTHEAST WISCONSIN

CITY           SKY/WX    TMP DP  RH WIND       PRES   REMARKS
ANTIGO         MOSUNNY   52  33  48 SE14G20   29.81F
SHAWANO        MOSUNNY   55  32  40 SE13G20   29.85F
OCONTO         PTSUNNY   49  33  52 SE12      29.88F
STURGEON BAY   CLOUDY    46  28  49 E6        29.90F
GREEN BAY      CLOUDY    52  32  46 SE16      29.86F
MANITOWOC      CLOUDY    50  31  48 S16       29.86F
APPLETON       PTSUNNY   55  30  38 SE9G17    29.84F
CLINTONVILLE   PTSUNNY   54  32  43 SE14      29.84F
OSHKOSH        SUNNY     59  34  39 SE13G22   29.80F
$$

WIZ032>034-041-042-053>061-191700-
SOUTHWEST WISCONSIN

CITY           SKY/WX    TMP DP  RH WIND       PRES   REMARKS
LA CROSSE      LGT RAIN  57  42  57 SE14      29.72F
SPARTA         CLOUDY    56  36  46 SE6       29.74F
VIROQUA        CLOUDY    56  35  45 SE12      29.73F
BOSCOBEL       PTSUNNY   66  38  35 VRB3      29.73F
PRAIRIE DU CHI CLOUDY    59  38  45 E7        29.71F
PLATTEVILLE    PTSUNNY   64  42  45 SE7       29.72F
$$

WIZ056-057-062-063-064-067-068-191700-
SOUTH CENTRAL WISCONSIN

CITY           SKY/WX    TMP DP  RH WIND       PRES   REMARKS
REEDSBURG      PTSUNNY   63  38  40 SE8       29.74F
BARABOO/DELLS  CLOUDY    62  35  36 S9        29.75F
LONE ROCK      CLOUDY    64  40  41 SE7       29.73F
MINERAL POINT  PTSUNNY   64  37  36 SE9       29.72F
MADISON        CLOUDY    65  37  35 SE14      29.75F
MIDDLETON      MOSUNNY   66  34  31 SE10      29.75F
WATERTOWN      MOSUNNY   63  37  37 SE15G21   29.77F
MONROE         MOSUNNY   64  41  42 E12       29.73F
JANESVILLE     SUNNY     70  36  28 SE18      29.73F
$$

WIZ051-052-058>065-066-070>072-191700-
SOUTHEAST WISCONSIN

CITY           SKY/WX    TMP DP  RH WIND       PRES   REMARKS
MILWAUKEE      PTSUNNY   51  33  50 E9        29.83F
WAUKESHA       PTSUNNY   55  34  44 E14G21    29.82F
MILWAUKEE/TIMM SUNNY     54  28  37 SE10      29.84F
RACINE         PTSUNNY   52  32  46 E7        29.83F
BURLINGTON     MOSUNNY   59  33  37 E10       29.78F
KENOSHA        MOSUNNY   56  34  43 E12       29.80F
FOND DU LAC    SUNNY     59  32  36 SE17G29   29.80F
SHEBOYGAN      MOSUNNY   54  31  41 S13       29.86F
WEST BEND      MOSUNNY   54  30  40 E15       29.83F
JUNEAU         MOSUNNY   59  35  40 E17       29.79F
$$

LSZ147-162-191700-
LAKE SUPERIOR

STATION/POSITION TIME  TEMP    WIND        PRES    WAVE
                       AIR SEA DIR/SP/G            HT/PER
                 (UTC) (F)     (DEG/KT/KT) (MB)    (FT/S)
DEVILS ISLAND    1600   37      70/ 15/ 19 1007.6F
PORT WING        1500   39      40/ 14/ 15 1007.1F
SAXON HARBOR     1500   49     230/  4/  8 1007.1S
$$

LMZ867-665-643>646-191700-
LAKE MICHIGAN

STATION/POSITION TIME  TEMP    WIND        PRES    WAVE
                       AIR SEA DIR/SP/G            HT/PER
                 (UTC) (F)     (DEG/KT/KT) (MB)    (FT/S)
CHAMBERS ISLAND  1500   41     330/  6/  6 1013.9F
NORTHPORT PIER   1600   40      60/ 12/ 17 1013.2F
SISTER BAY       1447   49     120/ 13/ 20   N/A
KEWAUNEE LAKESHO 1600   44      60/  4/  7 1010.9F
SHEBOYGAN LAKESH 1600   46     190/  4/  5 1011.5F
PORT WASHINGTON  1540   47      70/  2/  3 1011.9F
MILWAUKEE LAKESH 1600   44      30/ 10/ 11   N/A
KENOSHA   LAKESH 1600   45      30/  9/  9 1009.5F
$$

TC  - TEMPERATURE IN CELSIUS
VSB - VISIBILITY IN STATUTE MILES
WCI - WIND CHILL INDEX
HX  - HEAT INDEX



USA.gov is the U.S. government's official web portal to all federal, state and local government web resources and services.